Flag for U.S.A. Weather past 2 weeks in Metairie, Louisiana, U.S.A.

67 °F

Passing clouds.

Feels Like: 67 °F
Forecast: 64 / 75 °F
Wind: 7 mph from Southeast

Location: New Orleans International Airport

Current Time: Nov 29, 2015 at 2:47:28 AM

Latest Report: Nov 29, 2015 at 1:53 AM

Visibility: 10 mi

Pressure: 30.14 "Hg

Humidity: 90%

Dew point: 64 °F

Location of MetairieLocation

Historic Weather in Metairie — Graph


Metairie temperature yesterday

Maximum temperature yesterday: 80 °F (at 12:53 PM)
Minimum temperature yesterday: 66 °F (at 4:53 AM)
Average temperature yesterday: 72 °F

Past Weeks' High & Low Weather Summary

High82 °F (Nov 17, 12:00 PM)93% (Nov 18, 6:53 AM)30.38 "Hg (Nov 18, 6:53 AM)
Low43 °F (Nov 23, 11:53 PM)28% (Nov 14, 12:53 PM)29.75 "Hg (Nov 18, 12:53 AM)
Average64 °F68%30.15 "Hg
* Reported Nov 13 11:53 PM — Nov 28 11:53 PM, Metairie, Weather by CustomWeather, © 2015

Note: Actual official high and low records may vary slightly from our data, if they occured in-between our weather recording intervals... More about our weather records


Metairie weather history for previous 24 hours

Time TempWeatherWind HumidityBarometerVisibility
11:53 PM
Sat, Nov 28
68 °FPassing clouds.7 mph90%30.17 "Hg7 mi
10:53 PM68 °FPassing clouds.6 mph90%30.18 "Hg8 mi
9:53 PM69 °FPassing clouds.6 mph90%30.18 "Hg10 mi
8:53 PM70 °FPassing clouds.6 mph87%30.17 "Hg10 mi
7:53 PM70 °FPassing clouds.8 mph87%30.16 "Hg10 mi
6:53 PM72 °FPassing clouds.5 mph78%30.16 "Hg10 mi
5:53 PM72 °FPartly cloudy.6 mph76%30.14 "Hg10 mi
4:53 PM74 °FPartly sunny.7 mph69%30.13 "Hg10 mi
3:53 PM78 °FBroken clouds.8 mph60%30.13 "Hg10 mi
2:53 PM79 °FPartly sunny.10 mph52%30.13 "Hg10 mi
1:53 PM80 °FPartly sunny.10 mph51%30.13 "Hg10 mi
12:53 PM80 °FPartly sunny.13 mph52%30.15 "Hg10 mi
11:53 AM79 °FPartly sunny.13 mph56%30.17 "Hg10 mi
10:53 AM78 °FBroken clouds.12 mph58%30.20 "Hg10 mi
9:53 AM76 °FPartly sunny.14 mph62%30.21 "Hg10 mi
8:53 AM73 °FPartly sunny.9 mph69%30.21 "Hg10 mi
7:53 AM70 °FScattered clouds.7 mph76%30.19 "Hg10 mi
6:53 AM67 °FScattered clouds.6 mph81%30.19 "Hg10 mi
5:53 AM66 °FPassing clouds.5 mph84%30.18 "Hg10 mi
4:53 AM66 °FClear.5 mph84%30.17 "Hg10 mi
3:53 AM67 °FClear.3 mph85%30.18 "Hg10 mi
2:53 AM67 °FPassing clouds.6 mph87%30.17 "Hg10 mi
Weather by CustomWeather, © 2015

See weather overviewHow to use our weather pages